Location: Muck Cross
(36.7179°N, 78.3678°W)
Time: 13:29:38
(UTC+00:00)

Altair - All Passes

Search period start: 30 March 2023 00:00
Search period end: 09 April 2023 00:00
Orbit: 1501 x 1682 km, 47.2° (Epoch: 29 March)

Date Brightness Start Highest point End Pass type
(mag) Time Alt. Az. Time Alt. Az. Time Alt. Az.
30 Mar - 07:48:37 10° SSW 07:57:26 41° SE 08:05:58 10° ENE visible
30 Mar - 09:52:14 10° WSW 10:01:47 74° NNW 10:11:03 10° ENE visible
30 Mar - 11:58:47 10° WNW 12:07:38 44° N 12:16:20 10° ENE daylight
30 Mar - 14:04:51 10° WNW 14:13:52 55° NNE 14:22:51 10° E daylight
30 Mar - 16:09:46 10° WNW 16:18:49 66° SW 16:27:56 10° SE daylight
30 Mar - 18:17:00 10° W 18:22:12 17° SW 18:27:29 10° SSW daylight
31 Mar - 07:23:41 10° SSW 07:32:19 38° SE 07:40:41 10° ENE visible
31 Mar - 09:26:57 10° WSW 09:36:33 78° NNW 09:45:52 10° ENE visible
31 Mar - 11:33:26 10° WNW 11:42:20 45° N 11:51:03 10° ENE daylight
31 Mar - 13:39:37 10° WNW 13:48:37 53° NNE 13:57:32 10° E daylight
31 Mar - 15:44:33 10° WNW 15:53:40 71° SW 16:02:50 10° SE daylight
31 Mar - 17:51:19 10° W 17:57:09 19° SW 18:03:03 10° SSW daylight
01 Apr - 06:58:47 10° S 07:07:12 34° SE 07:15:21 10° ENE visible
01 Apr - 09:01:41 10° WSW 09:11:21 82° NNW 09:20:41 10° ENE visible
01 Apr - 11:08:04 10° W 11:17:01 46° N 11:25:47 10° ENE daylight
01 Apr - 13:14:22 10° WNW 13:23:20 51° NNE 13:32:13 10° E daylight
01 Apr - 15:19:20 10° WNW 15:28:31 77° SW 15:37:43 10° SE daylight
01 Apr - 17:25:44 10° W 17:32:06 21° SW 17:38:32 10° S daylight
02 Apr - 06:33:56 10° S 06:42:06 31° SE 06:50:00 10° ENE visible
02 Apr - 08:36:26 10° WSW 08:46:08 87° NW 08:55:30 10° ENE visible
02 Apr - 10:42:41 10° W 10:51:43 47° N 11:00:32 10° ENE daylight
02 Apr - 12:49:06 10° WNW 12:58:04 49° NNE 13:06:53 10° E daylight
02 Apr - 14:54:08 10° WNW 15:03:22 82° SW 15:12:34 10° SE daylight
02 Apr - 17:00:13 10° WNW 17:07:02 24° SW 17:13:54 10° S daylight
03 Apr - 06:09:08 10° S 06:17:00 28° SE 06:24:37 10° ENE visible
03 Apr - 08:11:13 10° SW 08:20:56 88° SSE 08:30:19 10° ENE visible
03 Apr - 10:17:19 10° W 10:26:25 48° NNW 10:35:17 10° ENE visible
03 Apr - 12:23:50 10° WNW 12:32:46 48° NNE 12:41:34 10° E daylight
03 Apr - 14:28:56 10° WNW 14:38:11 87° SW 14:47:24 10° SE daylight
03 Apr - 16:34:46 10° WNW 16:41:58 27° SW 16:49:13 10° S daylight
04 Apr - 05:44:23 10° S 05:51:54 25° SE 05:59:12 10° ENE visible
04 Apr - 07:46:00 10° SW 07:55:45 83° SE 08:05:08 10° ENE visible
04 Apr - 09:51:56 10° W 10:01:08 50° NNW 10:10:04 10° ENE visible
04 Apr - 11:58:33 10° WNW 12:07:29 47° N 12:16:14 10° E daylight
04 Apr - 14:03:44 10° WNW 14:13:01 88° NNE 14:22:14 10° SE daylight
04 Apr - 16:09:22 10° WNW 16:16:54 30° SW 16:24:28 10° S daylight
05 Apr - 05:19:41 10° S 05:26:49 23° SE 05:33:44 10° E visible
05 Apr - 07:20:48 10° SW 07:30:33 78° SE 07:39:57 10° ENE visible
05 Apr - 09:26:34 10° W 09:35:50 51° NNW 09:44:50 10° ENE visible
05 Apr - 11:33:15 10° WNW 11:42:11 46° N 11:50:55 10° E daylight
05 Apr - 13:38:32 10° WNW 13:47:49 83° NNE 13:57:02 10° ESE daylight
05 Apr - 15:44:00 10° WNW 15:51:48 33° SW 15:59:40 10° S daylight
06 Apr - 04:55:05 10° S 05:01:42 20° SE 05:08:10 10° E visible
06 Apr - 06:55:38 10° SW 07:05:22 73° SE 07:14:46 10° ENE visible
06 Apr - 09:01:11 10° W 09:10:33 53° NNW 09:19:37 10° ENE visible
06 Apr - 11:07:56 10° WNW 11:16:52 45° N 11:25:36 10° ENE daylight
06 Apr - 13:13:19 10° WNW 13:22:38 78° NNE 13:31:49 10° ESE daylight
06 Apr - 15:18:39 10° WNW 15:26:44 36° SW 15:34:49 10° SSE daylight
07 Apr - 04:30:34 10° SSE 04:36:37 18° SE 04:42:33 10° E visible
07 Apr - 06:30:29 10° SW 06:40:12 68° SE 06:49:34 10° ENE visible
07 Apr - 08:35:49 10° W 08:45:16 56° NNW 08:54:24 10° ENE visible
07 Apr - 10:42:37 10° WNW 10:51:34 44° N 11:00:17 10° ENE daylight
07 Apr - 12:48:07 10° WNW 12:57:25 74° NNE 13:06:35 10° ESE daylight
07 Apr - 14:53:21 10° WNW 15:01:38 40° SW 15:09:56 10° SSE daylight
08 Apr - 04:06:12 10° SSE 04:11:33 16° ESE 04:16:48 10° E visible
08 Apr - 06:05:21 10° SW 06:15:02 63° SE 06:24:21 10° ENE visible
08 Apr - 08:10:27 10° W 08:19:59 58° NNW 08:29:12 10° ENE visible
08 Apr - 10:17:17 10° WNW 10:26:15 44° N 10:34:58 10° ENE visible
08 Apr - 12:22:53 10° WNW 12:32:12 70° NNE 12:41:20 10° ESE daylight
08 Apr - 14:28:02 10° WNW 14:36:33 44° SW 14:45:02 10° SSE daylight
